Torna al catalogo

COSMOS 2346

AttivoMilitarePO
NORAD 24953·PAYLOAD·🇷🇺 Russia

Lanciato Sep 23, 1997 da Plesetsk Cosmodrome

Loading…

Prossimi Passaggi (prossime 24 ore)

TLE

AggiornatoSource: Space-Track

Epoca: Sep 14, 2026, 13:14 UTC

1 24953U 97052A   26257.55168295  .00000033  00000-0  16501-4 0  9992
2 24953  82.9185 280.2010 0040927  73.1563  90.5013 13.79830382458692

Traccia COSMOS 2346 in tempo reale con AllMySat

Download on the App Store